IK5WWP Weather Reports


Display with metric or nautical units.
time (UTC)temp
F
wind
direction
speed
MPH
gust
MPH
rain 1hr
in
rain 24hr
in
rain mn
in
humidity
%
barometer
mb
20260831060049 68 1 0.0 2.0 0.00 0.00 0.00 80 1014.8
20260831054249 67 1 0.0 2.0 0.00 0.00 0.00 81 1014.6
20260831052449 67 0 0.0 0.0 0.00 0.00 0.00 81 1014.8
20260831051549 66 0 0.0 0.0 0.00 0.00 0.00 81 1014.6
20260831045749 67 0 0.0 0.0 0.00 0.00 0.00 81 1014.3
20260831044849 67 0 0.0 0.0 0.00 0.00 0.00 81 1014.1
20260831043049 67 0 0.0 0.0 0.00 0.00 0.00 80 1014.4
20260831042149 67 1 0.0 2.0 0.00 0.00 0.00 79 1014.0
20260831040349 67 1 0.0 2.0 0.00 0.00 0.00 80 1014.1
20260831035449 67 1 0.0 2.0 0.00 0.00 0.00 80 1014.1
20260831034549 67 1 0.0 2.0 0.00 0.00 0.00 81 1014.3
20260831033649 67 1 0.0 2.0 0.00 0.00 0.00 82 1014.1
20260831032749 66 1 0.0 2.0 0.00 0.00 0.00 83 1014.2
20260831031849 67 0 0.0 0.0 0.00 0.00 0.00 85 1013.9
20260831030949 67 0 0.0 0.0 0.00 0.00 0.00 85 1014.2
20260831030049 67 0 0.0 0.0 0.00 0.00 0.00 84 1014.2
20260831025149 67 0 0.0 0.0 0.00 0.00 0.00 83 1014.1
20260831024249 67 1 0.0 2.0 0.00 0.00 0.00 80 1014.2
20260831023349 67 1 0.0 2.0 0.00 0.00 0.00 79 1014.1
20260831022449 67 1 0.0 2.0 0.00 0.00 0.00 79 1014.4
20260831021549 67 1 0.0 4.0 0.00 0.00 0.00 78 1014.2
20260831020649 67 1 1.0 2.0 0.00 0.00 0.00 78 1014.5
20260831015749 67 1 1.0 2.0 0.00 0.00 0.00 78 1014.3
20260831014849 67 1 1.0 2.0 0.00 0.00 0.00 78 1014.2
20260831013949 68 1 1.0 4.0 0.00 0.00 0.00 77 1014.5
20260831013049 68 1 2.0 2.0 0.00 0.00 0.00 77 1014.6
20260831012149 68 1 1.0 2.0 0.00 0.00 0.00 77 1014.5
20260831011249 68 12 1.0 2.0 0.00 0.00 0.00 77 1014.4
20260831010349 68 14 1.0 2.0 0.00 0.00 0.00 78 1014.4
20260831005449 67 354 1.0 2.0 0.00 0.00 0.00 78 1014.2
20260831004549 67 342 1.0 2.0 0.00 0.00 0.00 78 1014.4
20260831003650 68 339 1.0 2.0 0.00 0.00 0.00 78 1014.6
20260831001849 68 337 0.0 2.0 0.00 0.00 0.00 79 1014.0
20260831000950 67 0 0.0 0.0 0.00 0.00 0.00 80 1014.6
20260831000050 68 0 0.0 0.0 0.00 0.00 0.00 79 1014.4
20260830234250 68 337 0.0 2.0 0.00 0.00 0.00 79 1014.4
20260830233349 68 337 0.0 2.0 0.00 0.00 0.00 78 1014.2
20260830232449 69 337 0.0 2.0 0.00 0.00 0.00 78 1014.2
20260830231549 69 337 0.0 2.0 0.00 0.00 0.00 78 1014.2
20260830230650 69 337 1.0 2.0 0.00 0.00 0.00 79 1014.2
20260830225750 69 337 0.0 2.0 0.00 0.00 0.00 79 1014.1
20260830224849 69 1 0.0 2.0 0.00 0.00 0.00 75 1014.1
20260830223050 70 45 0.0 2.0 0.00 0.00 0.00 74 1014.1
20260830222150 70 0 0.0 0.0 0.00 0.00 0.00 74 1014.3
20260830221250 70 0 0.0 0.0 0.00 0.00 0.00 75 1014.3
20260830215432 70 51 0.0 2.0 0.00 0.00 0.00 74 1014.0
20260830214532 70 53 0.0 2.0 0.00 0.00 0.00 74 1014.1
20260830213632 71 28 0.0 2.0 0.00 0.00 0.00 74 1014.0
20260830212732 71 39 0.0 2.0 0.00 0.00 0.00 73 1013.9
20260830211832 71 45 0.0 2.0 0.00 0.00 0.00 74 1013.9
20260830210932 71 45 0.0 2.0 0.00 0.00 0.00 73 1013.9
20260830210032 72 45 0.0 2.0 0.00 0.00 0.00 72 1013.8
20260830205132 72 41 0.0 2.0 0.00 0.00 0.00 72 1013.6
20260830204232 72 41 1.0 4.0 0.00 0.00 0.00 73 1013.3
20260830203332 72 44 1.0 2.0 0.00 0.00 0.00 73 1013.3
20260830202432 72 9 0.0 2.0 0.00 0.00 0.00 72 1013.5
20260830201532 72 48 1.0 2.0 0.00 0.00 0.00 72 1013.4
20260830200632 73 24 1.0 2.0 0.00 0.00 0.00 72 1013.1
20260830195732 73 8 1.0 2.0 0.00 0.00 0.00 73 1013.1
20260830194832 73 1 0.0 2.0 0.00 0.00 0.00 73 1013.3
20260830193932 74 1 1.0 2.0 0.00 0.00 0.00 72 1013.5
20260830193032 74 1 0.0 2.0 0.00 0.00 0.00 72 1013.5
20260830192132 74 1 0.0 2.0 0.00 0.00 0.00 72 1013.2
20260830190332 74 23 0.0 2.0 0.00 0.00 0.00 71 1013.3
20260830185432 75 35 0.0 2.0 0.00 0.00 0.00 71 1013.2
20260830184532 75 45 0.0 2.0 0.00 0.00 0.00 71 1013.1
20260830183632 76 45 0.0 2.0 0.00 0.00 0.00 70 1013.1
20260830182732 76 26 0.0 2.0 0.00 0.00 0.00 70 1012.8
20260830181832 77 32 1.0 2.0 0.00 0.00 0.00 69 1012.8
20260830180932 77 31 1.0 2.0 0.00 0.00 0.00 68 1012.6
20260830180032 79 22 0.0 2.0 0.00 0.00 0.00 66 1012.5
20260830174232 81 54 0.0 2.0 0.00 0.00 0.00 62 1012.5
20260830172432 82 51 1.0 4.0 0.00 0.00 0.00 59 1012.3
20260830171532 82 60 0.0 4.0 0.00 0.00 0.00 57 1012.3
20260830170632 83 61 0.0 6.0 0.00 0.00 0.00 56 1012.1
20260830165732 83 64 1.0 6.0 0.00 0.00 0.00 55 1012.1
20260830164832 84 54 0.0 4.0 0.00 0.00 0.00 54 1012.2
20260830163032 85 45 2.0 6.0 0.00 0.00 0.00 53 1012.2
20260830161232 85 65 2.0 4.0 0.00 0.00 0.00 51 1012.0
20260830155432 86 54 0.0 7.0 0.00 0.00 0.00 51 1012.1
20260830153632 87 62 1.0 4.0 0.00 0.00 0.00 50 1012.1
20260830152732 87 78 0.0 4.0 0.00 0.00 0.00 49 1012.0
20260830151832 88 80 2.0 4.0 0.00 0.00 0.00 48 1012.3
20260830150932 89 68 0.0 4.0 0.00 0.00 0.00 46 1012.2
20260830150032 89 76 0.0 4.0 0.00 0.00 0.00 47 1012.2
20260830145132 89 107 1.0 4.0 0.00 0.00 0.00 46 1012.1
20260830144232 89 104 2.0 4.0 0.00 0.00 0.00 46 1012.2
20260830143332 89 32 0.0 4.0 0.00 0.00 0.00 44 1012.5
20260830142432 89 43 2.0 2.0 0.00 0.00 0.00 33 1012.3
20260830141532 89 96 0.0 2.0 0.00 0.00 0.00 33 1012.4
20260830140632 89 102 2.0 4.0 0.00 0.00 0.00 33 1012.3
20260830135732 90 49 2.0 4.0 0.00 0.00 0.00 33 1012.6
20260830134832 89 37 1.0 4.0 0.00 0.00 0.00 32 1012.7
20260830133932 90 103 2.0 4.0 0.00 0.00 0.00 32 1012.7
20260830133032 91 104 2.0 2.0 0.00 0.00 0.00 33 1012.6
20260830131232 91 47 0.0 2.0 0.00 0.00 0.00 30 1012.9
20260830130332 92 52 0.0 2.0 0.00 0.00 0.00 30 1013.0
20260830125432 90 41 1.0 2.0 0.00 0.00 0.00 30 1013.1
20260830124532 91 56 2.0 2.0 0.00 0.00 0.00 31 1013.0
20260830123632 90 94 1.0 4.0 0.00 0.00 0.00 30 1013.5
20260830122733 91 356 3.0 4.0 0.00 0.00 0.00 31 1013.4
20260830120932 89 107 2.0 4.0 0.00 0.00 0.00 32 1013.4
20260830115132 89 39 1.0 4.0 0.00 0.00 0.00 36 1013.5
20260830112432 89 81 1.0 4.0 0.00 0.00 0.00 37 1013.4
20260830105732 88 86 1.0 4.0 0.00 0.00 0.00 39 1013.6
20260830104832 88 110 1.0 4.0 0.00 0.00 0.00 39 1013.6
20260830103932 87 105 2.0 4.0 0.00 0.00 0.00 40 1013.6
20260830103032 87 99 2.0 4.0 0.00 0.00 0.00 41 1014.0
20260830101232 87 96 1.0 4.0 0.00 0.00 0.00 41 1014.2
20260830100332 85 91 0.0 2.0 0.00 0.00 0.00 43 1014.1
20260830095432 84 90 2.0 4.0 0.00 0.00 0.00 44 1014.1
20260830094532 84 110 2.0 4.0 0.00 0.00 0.00 45 1014.3
20260830093632 84 108 2.0 4.0 0.00 0.00 0.00 45 1014.2
20260830092732 85 73 1.0 4.0 0.00 0.00 0.00 44 1014.3
20260830091833 82 92 1.0 4.0 0.00 0.00 0.00 46 1014.2
20260830090932 82 96 2.0 4.0 0.00 0.00 0.00 47 1014.4
20260830090033 82 104 1.0 4.0 0.00 0.00 0.00 50 1014.5
20260830085132 81 95 2.0 4.0 0.00 0.00 0.00 51 1014.4
20260830084233 81 93 1.0 4.0 0.00 0.00 0.00 52 1014.5
20260830083333 79 99 2.0 2.0 0.00 0.00 0.00 54 1014.8
20260830082432 79 80 2.0 2.0 0.00 0.00 0.00 54 1014.6
20260830081533 76 72 1.0 2.0 0.00 0.00 0.00 57 1014.4
20260830080632 76 66 1.0 2.0 0.00 0.00 0.00 56 1014.6
20260830075732 75 46 0.0 2.0 0.00 0.00 0.00 57 1014.4
20260830074832 73 46 0.0 2.0 0.00 0.00 0.00 59 1014.7
20260830073932 72 68 0.0 2.0 0.00 0.00 0.00 62 1014.5
20260830073033 71 63 0.0 2.0 0.00 0.00 0.00 66 1014.4
20260830072132 70 29 0.0 2.0 0.00 0.00 0.00 68 1014.3
20260830071232 69 0 0.0 0.0 0.00 0.00 0.00 68 1014.5
20260830070333 69 1 0.0 2.0 0.00 0.00 0.00 68 1014.7
20260830063633 66 0 0.0 0.0 0.00 0.00 0.00 71 1014.2
20260830062733 65 0 0.0 0.0 0.00 0.00 0.00 71 1014.2
20260830061833 64 0 0.0 0.0 0.00 0.00 0.00 70 1014.4
20260830060933 64 0 0.0 0.0 0.00 0.00 0.00 70 1014.3